TimeMDT,TemperatureF,Dew PointF,Humidity,Sea Level PressureIn,VisibilityMPH,Wind Direction,Wind SpeedMPH,Gust SpeedMPH,PrecipitationIn,Events,Conditions,WindDirDegrees,DateUTC
12:15 AM,57.2,27.9,33,30.05,10.0,South,11.5,-,N/A,,Clear,180,2013-10-09 06:15:00
12:35 AM,55.9,28.2,35,30.05,10.0,South,10.4,16.1,N/A,,Clear,170,2013-10-09 06:35:00
12:55 AM,55.0,28.4,36,30.05,10.0,South,9.2,-,N/A,,Clear,170,2013-10-09 06:55:00
1:15 AM,54.5,28.4,37,30.05,10.0,South,9.2,-,N/A,,Clear,190,2013-10-09 07:15:00
1:35 AM,54.0,28.4,37,30.05,10.0,SSW,5.8,-,N/A,,Clear,210,2013-10-09 07:35:00
1:55 AM,52.7,28.9,40,30.06,10.0,South,6.9,-,N/A,,Clear,190,2013-10-09 07:55:00
2:15 AM,52.5,28.9,40,30.06,10.0,South,5.8,-,N/A,,Clear,190,2013-10-09 08:15:00
2:35 AM,54.3,28.0,36,30.05,10.0,SSW,5.8,-,N/A,,Clear,200,2013-10-09 08:35:00
2:55 AM,54.0,27.9,37,30.05,10.0,WSW,5.8,-,N/A,,Clear,240,2013-10-09 08:55:00
3:15 AM,55.8,26.2,32,30.04,10.0,WSW,8.1,-,N/A,,Clear,240,2013-10-09 09:15:00
3:35 AM,56.8,25.7,30,30.04,10.0,WSW,6.9,-,N/A,,Clear,250,2013-10-09 09:35:00
3:55 AM,56.1,25.7,31,30.04,10.0,WSW,8.1,-,N/A,,Clear,250,2013-10-09 09:55:00
4:15 AM,55.2,26.1,33,30.04,10.0,West,5.8,-,N/A,,Clear,280,2013-10-09 10:15:00
4:35 AM,52.5,27.1,38,30.05,10.0,SSE,3.5,-,N/A,,Clear,160,2013-10-09 10:35:00
4:55 AM,52.5,27.0,37,30.05,10.0,Calm,Calm,-,N/A,,Clear,0,2013-10-09 10:55:00
5:15 AM,53.8,26.6,35,30.05,10.0,Calm,Calm,-,N/A,,Clear,0,2013-10-09 11:15:00
5:35 AM,53.2,27.1,37,30.05,10.0,Calm,Calm,-,N/A,,Clear,0,2013-10-09 11:35:00
5:55 AM,53.2,27.3,37,30.06,10.0,ESE,3.5,-,N/A,,Clear,120,2013-10-09 11:55:00
6:15 AM,53.8,26.6,35,30.06,10.0,Calm,Calm,-,N/A,,Clear,0,2013-10-09 12:15:00
6:35 AM,53.8,26.4,35,30.06,10.0,Calm,Calm,-,N/A,,Clear,0,2013-10-09 12:35:00
6:55 AM,54.9,26.2,33,30.06,10.0,Calm,Calm,-,N/A,,Clear,0,2013-10-09 12:55:00
7:15 AM,53.1,26.6,36,30.07,10.0,Calm,Calm,-,N/A,,Clear,0,2013-10-09 13:15:00
7:35 AM,49.6,28.4,44,30.07,10.0,Calm,Calm,-,N/A,,Clear,0,2013-10-09 13:35:00
7:55 AM,50.0,29.7,46,30.07,10.0,Calm,Calm,-,N/A,,Clear,0,2013-10-09 13:55:00
8:15 AM,50.9,29.1,43,30.07,10.0,Calm,Calm,-,N/A,,Clear,0,2013-10-09 14:15:00
8:35 AM,52.0,28.9,41,30.08,10.0,Calm,Calm,-,N/A,,Clear,0,2013-10-09 14:35:00
8:55 AM,52.9,30.7,43,30.08,10.0,Calm,Calm,-,N/A,,Clear,0,2013-10-09 14:55:00
9:15 AM,54.1,30.2,40,30.09,10.0,Calm,Calm,-,N/A,,Clear,0,2013-10-09 15:15:00
9:35 AM,55.9,30.4,38,30.09,10.0,Calm,Calm,-,N/A,,Clear,0,2013-10-09 15:35:00
9:55 AM,57.9,29.8,34,30.09,10.0,Calm,Calm,-,N/A,,Clear,0,2013-10-09 15:55:00
10:15 AM,58.8,30.6,34,30.09,10.0,SE,4.6,-,N/A,,Clear,130,2013-10-09 16:15:00
10:35 AM,60.3,29.5,31,30.09,10.0,South,10.4,-,N/A,,Clear,170,2013-10-09 16:35:00
10:55 AM,60.6,28.2,29,30.09,10.0,SSW,5.8,-,N/A,,Clear,200,2013-10-09 16:55:00
11:15 AM,61.5,27.9,28,30.09,10.0,SSE,11.5,16.1,N/A,,Clear,160,2013-10-09 17:15:00
11:35 AM,62.1,28.0,28,30.09,10.0,South,11.5,18.4,N/A,,Clear,170,2013-10-09 17:35:00
11:55 AM,62.6,28.6,28,30.09,10.0,South,16.1,23.0,N/A,,Clear,180,2013-10-09 17:55:00
12:15 PM,61.9,27.9,28,30.08,10.0,South,10.4,27.6,N/A,,Clear,190,2013-10-09 18:15:00
12:35 PM,63.0,28.2,27,30.08,10.0,South,19.6,25.3,N/A,,Clear,190,2013-10-09 18:35:00
12:55 PM,63.0,28.4,27,30.07,10.0,South,13.8,24.2,N/A,,Clear,170,2013-10-09 18:55:00
1:15 PM,63.5,23.7,22,30.07,10.0,South,16.1,27.6,N/A,,Clear,180,2013-10-09 19:15:00
1:35 PM,63.3,17.2,17,30.06,10.0,South,20.7,-,N/A,,Clear,180,2013-10-09 19:35:00
1:55 PM,63.7,21.4,20,30.05,10.0,South,16.1,27.6,N/A,,Clear,180,2013-10-09 19:55:00
2:15 PM,64.0,21.0,19,30.05,10.0,South,17.3,23.0,N/A,,Clear,190,2013-10-09 20:15:00
2:55 PM,64.6,18.3,17,30.03,10.0,South,16.1,20.7,N/A,,Clear,190,2013-10-09 20:55:00
3:15 PM,64.8,20.7,19,30.03,10.0,South,10.4,21.9,N/A,,Clear,190,2013-10-09 21:15:00
3:35 PM,64.6,22.3,20,30.03,10.0,SSE,13.8,21.9,N/A,,Clear,160,2013-10-09 21:35:00
3:55 PM,64.4,21.7,20,30.03,10.0,South,16.1,20.7,N/A,,Clear,190,2013-10-09 21:55:00
4:15 PM,65.3,22.8,20,30.03,10.0,SE,8.1,-,N/A,,Clear,140,2013-10-09 22:15:00
4:35 PM,65.1,23.5,21,30.03,10.0,SSE,10.4,16.1,N/A,,Scattered Clouds,150,2013-10-09 22:35:00
4:55 PM,64.4,23.0,21,30.03,10.0,SE,15.0,23.0,N/A,,Scattered Clouds,140,2013-10-09 22:55:00
5:15 PM,64.2,23.7,21,30.03,10.0,South,12.7,20.7,N/A,,Scattered Clouds,170,2013-10-09 23:15:00
5:55 PM,63.3,23.9,22,30.03,10.0,SSE,9.2,16.1,N/A,,Clear,160,2013-10-09 23:55:00
6:15 PM,62.2,24.1,23,30.03,10.0,South,8.1,-,N/A,,Clear,190,2013-10-10 00:15:00
6:35 PM,61.3,24.6,25,30.03,10.0,South,3.5,-,N/A,,Scattered Clouds,190,2013-10-10 00:35:00
6:55 PM,61.2,24.6,25,30.03,10.0,Calm,Calm,-,N/A,,Overcast,0,2013-10-10 00:55:00
7:15 PM,60.8,25.5,26,30.05,10.0,SSW,5.8,-,N/A,,Overcast,210,2013-10-10 01:15:00
7:35 PM,58.5,33.6,39,30.07,10.0,SSW,16.1,33.4,N/A,Rain,Light Rain,210,2013-10-10 01:35:00
7:55 PM,54.9,37.8,53,30.05,5.0,SSW,9.2,32.2,0.01,Rain,Light Rain,200,2013-10-10 01:55:00
8:15 PM,54.1,38.3,55,30.04,10.0,West,11.5,-,N/A,,Mostly Cloudy,270,2013-10-10 02:15:00
8:35 PM,55.4,39.6,55,30.04,10.0,West,8.1,-,N/A,,Overcast,260,2013-10-10 02:35:00
8:55 PM,56.1,38.5,52,30.05,10.0,SW,5.8,-,N/A,,Mostly Cloudy,230,2013-10-10 02:55:00
9:15 PM,56.7,36.1,46,30.05,10.0,SSW,4.6,-,N/A,,Scattered Clouds,200,2013-10-10 03:15:00
9:35 PM,56.3,35.6,46,30.05,10.0,SSW,5.8,-,N/A,,Clear,200,2013-10-10 03:35:00
9:55 PM,56.5,34.9,44,30.06,10.0,SSW,5.8,-,N/A,,Clear,200,2013-10-10 03:55:00
10:15 PM,56.3,34.3,44,30.07,10.0,SSW,4.6,-,N/A,,Clear,200,2013-10-10 04:15:00
10:55 PM,57.6,33.6,41,30.06,10.0,South,5.8,-,N/A,,Clear,180,2013-10-10 04:55:00
11:15 PM,56.3,34.0,43,30.06,10.0,South,4.6,-,N/A,,Scattered Clouds,180,2013-10-10 05:15:00
11:35 PM,55.9,34.7,45,30.06,10.0,South,3.5,-,N/A,,Mostly Cloudy,170,2013-10-10 05:35:00
11:55 PM,55.4,35.2,47,30.06,10.0,South,4.6,-,N/A,Rain,Light Rain,170,2013-10-10 05:55:00